Regional Weather Roundup
Issued by NWS

Home | Current Version | Previous Version | Graphics & Text | Print | Product List | Glossary On
Versions: 1 2 3 4 5 6 7 8 9 10 11 12 13 14 15 16 17 18 19 20 21 22 23 24 25 26 27 28 29 30 31 32 33 34 35 36 37 38 39 40 41 42 43 44 45 46 47 48 49 50
314
ASUS43 KTOP 230608
RWRKS

WEATHER ROUNDUP FOR KANSAS
NATIONAL WEATHER SERVICE GOODLAND KS
100 AM CDT THU MAR 23 2017

NOTE:  "FAIR" INDICATES FEW OR NO CLOUDS BELOW 12,000 FEET WITH NO
SIGNIFICANT WEATHER AND/OR OBSTRUCTIONS TO VISIBILITY.

KSZ001>006-013>018-027>032-041>047-230700-
NORTHWEST KANSAS

CITY           SKY/WX    TMP DP  RH WIND       PRES   REMARKS
GOODLAND       CLOUDY    45  37  73 SE22      29.87F
6HR MIN TEMP:  45; 6HR MAX TEMP:  57;

HAYS             N/A     47  36  65 SE12      30.00F
HILL CITY      PTCLDY    46  37  71 SE7       29.98F
6HR MIN TEMP:  46; 6HR MAX TEMP:  53;

RUSSELL        CLOUDY    49  35  58 SE14      30.00F
6HR MIN TEMP:  46; 6HR MAX TEMP:  53;

$$

KSZ061>065-074>080-084>089-230700-
SOUTHWEST KANSAS

CITY           SKY/WX    TMP DP  RH WIND       PRES   REMARKS
DODGE CITY     CLOUDY    46  41  82 SE15      29.97F
6HR MIN TEMP:  45; 6HR MAX TEMP:  57;

ELKHART          N/A     52  41  66 SE16        N/A
GARDEN CITY    CLEAR     47  41  80 SE13      29.95S
6HR MIN TEMP:  47; 6HR MAX TEMP:  60;

GREAT BEND     CLOUDY    49  39  68 SE12      30.01F
LIBERAL        CLEAR     54  43  66 E13       29.96F
PRATT          CLOUDY    49  40  72 SE10      30.01F
6HR MIN TEMP:  44; 6HR MAX TEMP:  51;

$$

KSZ066>073-081>083-090>101-230700-
SOUTHEAST KANSAS

CITY           SKY/WX    TMP DP  RH WIND       PRES   REMARKS
CHANUTE        CLOUDY    55  39  54 SE13      30.12F
6HR MIN TEMP:  55; 6HR MAX TEMP:  57;

COFFEYVILLE    CLOUDY    57  44  62 E9        30.11F
6HR MIN TEMP:  56; 6HR MAX TEMP:  58;

HUTCHINSON     CLOUDY    51  39  63 SE7       30.04F
6HR MIN TEMP:  49; 6HR MAX TEMP:  56;

MEDICINE LODGE   N/A     54  45  71 E9        30.00F
NEWTON         CLOUDY    54  43  66 SE17      30.05F
PARSONS        CLOUDY    56  41  57 VRB6      30.12F
6HR MIN TEMP:  56; 6HR MAX TEMP:  57;

WICHITA INTL   CLOUDY    56  46  69 SE16      30.04F
6HR MIN TEMP:  52; 6HR MAX TEMP:  57;

WICHITA JABRA  CLOUDY    54  45  71 SE13      30.05F
6HR MIN TEMP:  51; 6HR MAX TEMP:  56;

WICHITA MCCONL CLOUDY    55  45  67 S18       30.05F
WINFIELD       CLOUDY    57  47  69 SE13      30.07F
6HR MIN TEMP:  55; 6HR MAX TEMP:  60;

$$

KSZ007>012-019>026-033>040-048>060-102>105-230700-
NORTHEAST KANSAS

CITY           SKY/WX    TMP DP  RH WIND       PRES   REMARKS
CONCORDIA      CLOUDY    51  30  44 E7        30.07F
6HR MIN TEMP:  51; 6HR MAX TEMP:  54;

EMPORIA        CLOUDY    53  41  63 SE13      30.10F
6HR MIN TEMP:  53; 6HR MAX TEMP:  56;

LAWRENCE       CLOUDY    52  28  39 E14       30.16S
6HR MIN TEMP:  52; 6HR MAX TEMP:  55;

MANHATTAN      CLOUDY    54  32  43 E8        30.10F
6HR MIN TEMP:  54; 6HR MAX TEMP:  56;

MARYSVILLE     CLOUDY    50  30  46 SE9       30.11F
OLATHE IND     CLOUDY    51  27  39 E14G20    30.16S
6HR MIN TEMP:  50; 6HR MAX TEMP:  54;

OLATHE EXE     CLOUDY    50  27  40 E15G21    30.16F
6HR MIN TEMP:  50; 6HR MAX TEMP:  52;

SALINA         CLOUDY    54  36  50 SE13      30.06F
6HR MIN TEMP:  53; 6HR MAX TEMP:  58;

TOPEKA BILLARD CLOUDY    52  30  43 SE14      30.14S
6HR MIN TEMP:  52; 6HR MAX TEMP:  56;

TOPEKA FORBES  CLOUDY    53  30  41 SE12      30.13S
6HR MIN TEMP:  52; 6HR MAX TEMP:  57;

$$




USA.gov is the U.S. government's official web portal to all federal, state and local government web resources and services.